"Sample Date","Sample Time","Sample Value","Units","Flow Rate","Sample Interval","Number Channels","Micron Size 0","Counts/Channel 0","Micron Size 1","Counts/Channel 1","Micron Size 2","Counts/Channel 2","Micron Size 3","Counts/Channel 3","Micron Size 4","Counts/Channel 4","Micron Size 5","Counts/Channel 5","Micron Size 6","Counts/Channel 6","Micron Size 7","Counts/Channel 7","Micron Size 8","Counts/Channel 8","Micron Size 9","Counts/Channel 9","Micron Size 10","Counts/Channel 10","Micron Size 11","Counts/Channel 11","Micron Size 12","Counts/Channel 12","Micron Size 13","Counts/Channel 13","Micron Size 14","Counts/Channel 14","Micron Size 15","Counts/Channel 15","Micron Size 16","Counts/Channel 16","Micron Size 17","Counts/Channel 17","Micron Size 18","Counts/Channel 18","Micron Size 19","Counts/Channel 19","Micron Size 20","Counts/Channel 20","Micron Size 21","Counts/Channel 21","Micron Size 22","Counts/Channel 22","Micron Size 23","Counts/Channel 23","Micron Size 24","Counts/Channel 24","Micron Size 25","Counts/Channel 25","Micron Size 26","Counts/Channel 26","Micron Size 27","Counts/Channel 27","Micron Size 28","Counts/Channel 28","Micron Size 29","Counts/Channel 29","Micron Size 30","Counts/Channel 30","Micron Size 31","Counts/Channel 31"
"04/02/08","00:00:00",14647.000,"cc",28345.680,6.00,6,0.100,13019.000,0.200,589.000,0.300,430.000,0.500,444.000,1.000,165.000,5.000,0
"04/02/08","00:00:06",14653.000,"cc",28290.904,6.00,6,0.100,13002.000,0.200,568.000,0.300,427.000,0.500,468.000,1.000,188.000,5.000,0
"04/02/08","00:00:12",14697.000,"cc",28331.248,6.00,6,0.100,12974.000,0.200,678.000,0.300,377.000,0.500,485.000,1.000,183.000,5.000,0
"04/02/08","00:00:18",14786.000,"cc",28376.586,6.00,6,0.100,13101.000,0.200,632.000,0.300,413.000,0.500,446.000,1.000,194.000,5.000,0
"04/02/08","00:00:24",14959.000,"cc",28215.807,6.00,6,0.100,13184.000,0.200,614.000,0.300,445.000,0.500,515.000,1.000,201.000,5.000,0
"04/02/08","00:00:30",14894.000,"cc",28318.164,6.00,6,0.100,13168.000,0.200,619.000,0.300,434.000,0.500,476.000,1.000,197.000,5.000,0
"04/02/08","00:00:36",14764.000,"cc",28264.145,6.00,6,0.100,13055.000,0.200,630.000,0.300,433.000,0.500,483.000,1.000,163.000,5.000,0
"04/02/08","00:00:42",14600.000,"cc",28291.109,6.00,6,0.100,13018.000,0.200,562.000,0.300,357.000,0.500,471.000,1.000,192.000,5.000,0
"04/02/08","00:00:48",14794.000,"cc",28332.840,6.00,6,0.100,13098.000,0.200,625.000,0.300,416.000,0.500,488.000,1.000,167.000,5.000,0
"04/02/08","00:00:54",14368.000,"cc",28308.443,6.00,6,0.100,12646.000,0.200,632.000,0.300,411.000,0.500,511.000,1.000,168.000,5.000,0
"04/02/08","00:01:00",14709.000,"cc",28302.947,6.00,6,0.100,12982.000,0.200,615.000,0.300,430.000,0.500,500.000,1.000,182.000,5.000,0
"04/02/08","00:01:06",14633.000,"cc",28362.859,6.00,6,0.100,13008.000,0.200,557.000,0.300,394.000,0.500,507.000,1.000,167.000,5.000,0
"04/02/08","00:01:12",14677.000,"cc",28356.338,6.00,6,0.100,13046.000,0.200,598.000,0.300,373.000,0.500,472.000,1.000,188.000,5.000,0
"04/02/08","00:01:18",15006.000,"cc",28299.381,6.00,6,0.100,13268.000,0.200,646.000,0.300,413.000,0.500,508.000,1.000,171.000,5.000,0
"04/02/08","00:01:24",15012.000,"cc",28308.229,6.00,6,0.100,13355.000,0.200,588.000,0.300,409.000,0.500,497.000,1.000,163.000,5.000,0
"04/02/08","00:01:30",15396.000,"cc",28344.371,6.00,6,0.100,13819.000,0.200,562.000,0.300,392.000,0.500,460.000,1.000,163.000,5.000,0
"04/02/08","00:01:36",15107.000,"cc",28323.445,6.00,6,0.100,13430.000,0.200,590.000,0.300,413.000,0.500,475.000,1.000,199.000,5.000,0
"04/02/08","00:01:42",15431.000,"cc",28361.158,6.00,6,0.100,13582.000,0.200,631.000,0.300,470.000,0.500,526.000,1.000,222.000,5.000,0
"04/02/08","00:01:48",15208.000,"cc",28253.354,6.00,6,0.100,13446.000,0.200,606.000,0.300,452.000,0.500,513.000,1.000,191.000,5.000,0
"04/02/08","00:01:54",15159.000,"cc",28261.783,6.00,6,0.100,13474.000,0.200,645.000,0.300,419.000,0.500,448.000,1.000,173.000,5.000,0
"04/02/08","00:02:00",15123.000,"cc",28271.445,6.00,6,0.100,13541.000,0.200,587.000,0.300,374.000,0.500,465.000,1.000,156.000,5.000,0
"04/02/08","00:02:06",15246.000,"cc",28357.930,6.00,6,0.100,13556.000,0.200,612.000,0.300,440.000,0.500,453.000,1.000,185.000,5.000,0
"04/02/08","00:02:12",15252.000,"cc",28373.867,6.00,6,0.100,13545.000,0.200,642.000,0.300,421.000,0.500,447.000,1.000,197.000,5.000,0
"04/02/08","00:02:18",15177.000,"cc",28330.234,6.00,6,0.100,13471.000,0.200,623.000,0.300,387.000,0.500,482.000,1.000,214.000,5.000,0
"04/02/08","00:02:24",15273.000,"cc",28277.059,6.00,6,0.100,13528.000,0.200,619.000,0.300,430.000,0.500,506.000,1.000,190.000,5.000,0
"04/02/08","00:02:30",15223.000,"cc",28300.648,6.00,6,0.100,13405.000,0.200,607.000,0.300,461.000,0.500,559.000,1.000,191.000,5.000,0
"04/02/08","00:02:36",15322.000,"cc",28344.711,6.00,6,0.100,13602.000,0.200,601.000,0.300,394.000,0.500,521.000,1.000,204.000,5.000,0
"04/02/08","00:02:42",15051.000,"cc",28338.510,6.00,6,0.100,13388.000,0.200,581.000,0.300,407.000,0.500,506.000,1.000,169.000,5.000,0
"04/02/08","00:02:48",15088.000,"cc",28288.592,6.00,6,0.100,13441.000,0.200,559.000,0.300,412.000,0.500,503.000,1.000,173.000,5.000,0
"04/02/08","00:02:54",15136.000,"cc",28325.818,6.00,6,0.100,13339.000,0.200,637.000,0.300,412.000,0.500,559.000,1.000,189.000,5.000,0
"04/02/08","00:03:00",15025.000,"cc",28297.963,6.00,6,0.100,13352.000,0.200,586.000,0.300,421.000,0.500,470.000,1.000,196.000,5.000,0
"04/02/08","00:03:06",15023.000,"cc",28353.197,6.00,6,0.100,13349.000,0.200,595.000,0.300,412.000,0.500,480.000,1.000,187.000,5.000,0
"04/02/08","00:03:12",14919.000,"cc",28327.965,6.00,6,0.100,13306.000,0.200,611.000,0.300,386.000,0.500,460.000,1.000,156.000,5.000,0
"04/02/08","00:03:18",15240.000,"cc",28308.463,6.00,6,0.100,13497.000,0.200,617.000,0.300,427.000,0.500,510.000,1.000,189.000,5.000,0
"04/02/08","00:03:24",14963.000,"cc",28270.469,6.00,6,0.100,13231.000,0.200,594.000,0.300,423.000,0.500,500.000,1.000,215.000,5.000,0
"04/02/08","00:03:30",15032.000,"cc",28351.537,6.00,6,0.100,13385.000,0.200,595.000,0.300,407.000,0.500,457.000,1.000,188.000,5.000,0
"04/02/08","00:03:36",15228.000,"cc",28277.098,6.00,6,0.100,13422.000,0.200,612.000,0.300,431.000,0.500,552.000,1.000,211.000,5.000,0
"04/02/08","00:03:42",15196.000,"cc",28330.504,6.00,6,0.100,13463.000,0.200,625.000,0.300,410.000,0.500,502.000,1.000,196.000,5.000,0
"04/02/08","00:03:48",15310.000,"cc",28312.537,6.00,6,0.100,13603.000,0.200,612.000,0.300,425.000,0.500,490.000,1.000,180.000,5.000,0
"04/02/08","00:03:54",15107.000,"cc",28336.307,6.00,6,0.100,13514.000,0.200,564.000,0.300,379.000,0.500,481.000,1.000,169.000,5.000,0
"04/02/08","00:04:00",14966.000,"cc",28346.283,6.00,6,0.100,13384.000,0.200,590.000,0.300,370.000,0.500,436.000,1.000,186.000,5.000,0
"04/02/08","00:04:06",15013.000,"cc",28318.256,6.00,6,0.100,13485.000,0.200,513.000,0.300,367.000,0.500,481.000,1.000,167.000,5.000,0
"04/02/08","00:04:12",15108.000,"cc",28379.287,6.00,6,0.100,13505.000,0.200,558.000,0.300,406.000,0.500,477.000,1.000,162.000,5.000,0
"04/02/08","00:04:18",15175.000,"cc",28261.420,6.00,6,0.100,13579.000,0.200,574.000,0.300,378.000,0.500,476.000,1.000,168.000,5.000,0
"04/02/08","00:04:24",15573.000,"cc",28339.457,6.00,6,0.100,13847.000,0.200,611.000,0.300,417.000,0.500,477.000,1.000,221.000,5.000,0
"04/02/08","00:04:30",15792.000,"cc",28334.070,6.00,6,0.100,14101.000,0.200,585.000,0.300,407.000,0.500,504.000,1.000,195.000,5.000,0
"04/02/08","00:04:36",15408.000,"cc",28302.938,6.00,6,0.100,13756.000,0.200,613.000,0.300,363.000,0.500,479.000,1.000,197.000,5.000,0
"04/02/08","00:04:42",15695.000,"cc",28303.043,6.00,6,0.100,13993.000,0.200,599.000,0.300,417.000,0.500,493.000,1.000,193.000,5.000,0
"04/02/08","00:04:48",15769.000,"cc",28301.061,6.00,6,0.100,13956.000,0.200,644.000,0.300,422.000,0.500,544.000,1.000,203.000,5.000,0
"04/02/08","00:04:54",15690.000,"cc",28297.477,6.00,6,0.100,13901.000,0.200,669.000,0.300,382.000,0.500,503.000,1.000,235.000,5.000,0
"04/02/08","00:05:00",15512.000,"cc",28370.406,6.00,6,0.100,13761.000,0.200,641.000,0.300,408.000,0.500,499.000,1.000,203.000,5.000,0
"04/02/08","00:05:06",15667.000,"cc",28276.186,6.00,6,0.100,13849.000,0.200,664.000,0.300,381.000,0.500,568.000,1.000,205.000,5.000,0
"04/02/08","00:05:12",15419.000,"cc",28301.221,6.00,6,0.100,13628.000,0.200,600.000,0.300,446.000,0.500,539.000,1.000,206.000,5.000,0
"04/02/08","00:05:18",15608.000,"cc",28344.453,6.00,6,0.100,13886.000,0.200,585.000,0.300,389.000,0.500,547.000,1.000,201.000,5.000,0
"04/02/08","00:05:24",15857.000,"cc",28268.756,6.00,6,0.100,14181.000,0.200,598.000,0.300,411.000,0.500,472.000,1.000,195.000,5.000,0
"04/02/08","00:05:30",15787.000,"cc",28236.102,6.00,6,0.100,14080.000,0.200,576.000,0.300,420.000,0.500,521.000,1.000,190.000,5.000,0
"04/02/08","00:05:36",15727.000,"cc",28338.299,6.00,6,0.100,14026.000,0.200,603.000,0.300,426.000,0.500,492.000,1.000,180.000,5.000,0
"04/02/08","00:05:42",15651.000,"cc",28372.947,6.00,6,0.100,13886.000,0.200,640.000,0.300,443.000,0.500,489.000,1.000,193.000,5.000,0
"04/02/08","00:05:48",15894.000,"cc",28378.809,6.00,6,0.100,14183.000,0.200,627.000,0.300,393.000,0.500,514.000,1.000,177.000,5.000,0
"04/02/08","00:05:54",15988.000,"cc",28270.107,6.00,6,0.100,14341.000,0.200,579.000,0.300,396.000,0.500,486.000,1.000,186.000,5.000,0
"04/02/08","00:06:00",15633.000,"cc",28334.275,6.00,6,0.100,13903.000,0.200,636.000,0.300,414.000,0.500,515.000,1.000,165.000,5.000,0
"04/02/08","00:06:06",15713.000,"cc",28320.455,6.00,6,0.100,13967.000,0.200,635.000,0.300,432.000,0.500,478.000,1.000,201.000,5.000,0
"04/02/08","00:06:12",15903.000,"cc",28341.287,6.00,6,0.100,14173.000,0.200,612.000,0.300,436.000,0.500,512.000,1.000,170.000,5.000,0
"04/02/08","00:06:18",15844.000,"cc",28348.914,6.00,6,0.100,14127.000,0.200,636.000,0.300,429.000,0.500,490.000,1.000,162.000,5.000,0
"04/02/08","00:06:24",16059.000,"cc",28248.311,6.00,6,0.100,14312.000,0.200,607.000,0.300,416.000,0.500,513.000,1.000,211.000,5.000,0
"04/02/08","00:06:30",16172.000,"cc",28273.856,6.00,6,0.100,14304.000,0.200,676.000,0.300,442.000,0.500,551.000,1.000,199.000,5.000,0
"04/02/08","00:06:36",16468.000,"cc",28287.520,6.00,6,0.100,14570.000,0.200,662.000,0.300,469.000,0.500,554.000,1.000,213.000,5.000,0
"04/02/08","00:06:42",16096.000,"cc",28306.641,6.00,6,0.100,14339.000,0.200,621.000,0.300,439.000,0.500,505.000,1.000,192.000,5.000,0
"04/02/08","00:06:48",15751.000,"cc",28314.574,6.00,6,0.100,14013.000,0.200,631.000,0.300,414.000,0.500,505.000,1.000,188.000,5.000,0
"04/02/08","00:06:54",15668.000,"cc",28355.320,6.00,6,0.100,13940.000,0.200,581.000,0.300,433.000,0.500,513.000,1.000,201.000,5.000,0
"04/02/08","00:07:00",15352.000,"cc",28376.061,6.00,6,0.100,13693.000,0.200,578.000,0.300,418.000,0.500,476.000,1.000,187.000,5.000,0
"04/02/08","00:07:06",15493.000,"cc",28267.186,6.00,6,0.100,13877.000,0.200,578.000,0.300,356.000,0.500,495.000,1.000,187.000,5.000,0
"04/02/08","00:07:12",15984.000,"cc",28261.121,6.00,6,0.100,14241.000,0.200,642.000,0.300,399.000,0.500,501.000,1.000,201.000,5.000,0
"04/02/08","00:07:18",15632.000,"cc",28296.758,6.00,6,0.100,14050.000,0.200,593.000,0.300,376.000,0.500,442.000,1.000,171.000,5.000,0
"04/02/08","00:07:24",15686.000,"cc",28370.854,6.00,6,0.100,13976.000,0.200,594.000,0.300,445.000,0.500,474.000,1.000,197.000,5.000,0
"04/02/08","00:07:30",15875.000,"cc",28278.424,6.00,6,0.100,14171.000,0.200,581.000,0.300,423.000,0.500,511.000,1.000,189.000,5.000,0
"04/02/08","00:07:36",15673.000,"cc",28312.338,6.00,6,0.100,13988.000,0.200,584.000,0.300,426.000,0.500,501.000,1.000,174.000,5.000,0
"04/02/08","00:07:42",15525.000,"cc",28355.231,6.00,6,0.100,13815.000,0.200,591.000,0.300,407.000,0.500,504.000,1.000,208.000,5.000,0
"04/02/08","00:07:48",15685.000,"cc",28328.139,6.00,6,0.100,14000.000,0.200,594.000,0.300,419.000,0.500,512.000,1.000,160.000,5.000,0
"04/02/08","00:07:54",15482.000,"cc",28299.379,6.00,6,0.100,13739.000,0.200,610.000,0.300,422.000,0.500,522.000,1.000,189.000,5.000,0
"04/02/08","00:08:00",15426.000,"cc",28265.045,6.00,6,0.100,13719.000,0.200,588.000,0.300,443.000,0.500,516.000,1.000,160.000,5.000,0
"04/02/08","00:08:06",15385.000,"cc",28294.820,6.00,6,0.100,13739.000,0.200,601.000,0.300,404.000,0.500,474.000,1.000,167.000,5.000,0
"04/02/08","00:08:12",15161.000,"cc",28316.463,6.00,6,0.100,13534.000,0.200,583.000,0.300,389.000,0.500,486.000,1.000,169.000,5.000,0
"04/02/08","00:08:18",15236.000,"cc",28377.623,6.00,6,0.100,13567.000,0.200,572.000,0.300,389.000,0.500,522.000,1.000,186.000,5.000,0
"04/02/08","00:08:24",15421.000,"cc",28379.756,6.00,6,0.100,13752.000,0.200,563.000,0.300,423.000,0.500,505.000,1.000,178.000,5.000,0
"04/02/08","00:08:30",14604.000,"cc",28359.535,6.00,6,0.100,12995.000,0.200,578.000,0.300,373.000,0.500,454.000,1.000,204.000,5.000,0
"04/02/08","00:08:36",14817.000,"cc",28287.281,6.00,6,0.100,13236.000,0.200,557.000,0.300,382.000,0.500,455.000,1.000,187.000,5.000,0
"04/02/08","00:08:42",14625.000,"cc",28273.193,6.00,6,0.100,13115.000,0.200,485.000,0.300,374.000,0.500,463.000,1.000,188.000,5.000,0
"04/02/08","00:08:48",14927.000,"cc",28232.457,6.00,6,0.100,13360.000,0.200,536.000,0.300,395.000,0.500,454.000,1.000,182.000,5.000,0
"04/02/08","00:08:54",14822.000,"cc",28291.938,6.00,6,0.100,13169.000,0.200,575.000,0.300,385.000,0.500,497.000,1.000,196.000,5.000,0
"04/02/08","00:09:00",14874.000,"cc",28305.772,6.00,6,0.100,13357.000,0.200,542.000,0.300,362.000,0.500,456.000,1.000,157.000,5.000,0
"04/02/08","00:09:06",14933.000,"cc",28321.147,6.00,6,0.100,13412.000,0.200,579.000,0.300,351.000,0.500,442.000,1.000,149.000,5.000,0
"04/02/08","00:09:12",15108.000,"cc",28369.023,6.00,6,0.100,13487.000,0.200,541.000,0.300,389.000,0.500,485.000,1.000,206.000,5.000,0
"04/02/08","00:09:18",15167.000,"cc",28338.191,6.00,6,0.100,13581.000,0.200,554.000,0.300,346.000,0.500,509.000,1.000,177.000,5.000,0
"04/02/08","00:09:24",15397.000,"cc",28321.592,6.00,6,0.100,13815.000,0.200,553.000,0.300,398.000,0.500,451.000,1.000,180.000,5.000,0
"04/02/08","00:09:30",15783.000,"cc",28277.432,6.00,6,0.100,14020.000,0.200,641.000,0.300,429.000,0.500,487.000,1.000,206.000,5.000,0
"04/02/08","00:09:36",15962.000,"cc",28355.824,6.00,6,0.100,14249.000,0.200,570.000,0.300,430.000,0.500,494.000,1.000,219.000,5.000,0
"04/02/08","00:09:42",15726.000,"cc",28260.307,6.00,6,0.100,14060.000,0.200,558.000,0.300,398.000,0.500,529.000,1.000,181.000,5.000,0
"04/02/08","00:09:48",16092.000,"cc",28253.668,6.00,6,0.100,14366.000,0.200,572.000,0.300,473.000,0.500,466.000,1.000,215.000,5.000,0
"04/02/08","00:09:54",16030.000,"cc",28307.422,6.00,6,0.100,14376.000,0.200,609.000,0.300,427.000,0.500,456.000,1.000,162.000,5.000,0
"04/02/08","00:10:00",16058.000,"cc",28397.191,6.00,6,0.100,14358.000,0.200,591.000,0.300,433.000,0.500,487.000,1.000,189.000,5.000,0
"04/02/08","00:10:06",16482.000,"cc",28303.475,6.00,6,0.100,14738.000,0.200,593.000,0.300,450.000,0.500,485.000,1.000,216.000,5.000,0
"04/02/08","00:10:12",16495.000,"cc",28383.445,6.00,6,0.100,14721.000,0.200,614.000,0.300,437.000,0.500,530.000,1.000,193.000,5.000,0
"04/02/08","00:10:18",16712.000,"cc",28354.022,6.00,6,0.100,14898.000,0.200,617.000,0.300,420.000,0.500,567.000,1.000,210.000,5.000,0
"04/02/08","00:10:24",16775.000,"cc",28244.234,6.00,6,0.100,14979.000,0.200,602.000,0.300,437.000,0.500,525.000,1.000,232.000,5.000,0
"04/02/08","00:10:30",16647.000,"cc",28338.619,6.00,6,0.100,14856.000,0.200,644.000,0.300,429.000,0.500,522.000,1.000,196.000,5.000,0
"04/02/08","00:10:36",16961.000,"cc",28282.748,6.00,6,0.100,15196.000,0.200,601.000,0.300,432.000,0.500,546.000,1.000,186.000,5.000,0
"04/02/08","00:10:42",16982.000,"cc",28251.068,6.00,6,0.100,15183.000,0.200,602.000,0.300,433.000,0.500,547.000,1.000,217.000,5.000,0
"04/02/08","00:10:48",16669.000,"cc",28401.094,6.00,6,0.100,14929.000,0.200,650.000,0.300,406.000,0.500,497.000,1.000,187.000,5.000,0
"04/02/08","00:10:54",16810.000,"cc",28341.482,6.00,6,0.100,15038.000,0.200,597.000,0.300,443.000,0.500,526.000,1.000,206.000,5.000,0
"04/02/08","00:11:00",16941.000,"cc",28335.602,6.00,6,0.100,15154.000,0.200,612.000,0.300,443.000,0.500,534.000,1.000,198.000,5.000,0
"04/02/08","00:11:06",16718.000,"cc",28309.297,6.00,6,0.100,14947.000,0.200,622.000,0.300,429.000,0.500,529.000,1.000,191.000,5.000,0
"04/02/08","00:11:12",16777.000,"cc",28383.949,6.00,6,0.100,15025.000,0.200,593.000,0.300,428.000,0.500,500.000,1.000,231.000,5.000,0
"04/02/08","00:11:18",16825.000,"cc",28284.213,6.00,6,0.100,15066.000,0.200,610.000,0.300,458.000,0.500,485.000,1.000,206.000,5.000,0
"04/02/08","00:11:24",16677.000,"cc",28200.479,6.00,6,0.100,14929.000,0.200,608.000,0.300,432.000,0.500,505.000,1.000,203.000,5.000,0
"04/02/08","00:11:30",17125.000,"cc",28336.482,6.00,6,0.100,15274.000,0.200,656.000,0.300,458.000,0.500,550.000,1.000,187.000,5.000,0
"04/02/08","00:11:36",16810.000,"cc",28374.570,6.00,6,0.100,15097.000,0.200,586.000,0.300,405.000,0.500,545.000,1.000,177.000,5.000,0
"04/02/08","00:11:42",16706.000,"cc",28343.373,6.00,6,0.100,14858.000,0.200,624.000,0.300,436.000,0.500,590.000,1.000,198.000,5.000,0
"04/02/08","00:11:48",16741.000,"cc",28310.498,6.00,6,0.100,14947.000,0.200,604.000,0.300,446.000,0.500,531.000,1.000,213.000,5.000,0
"04/02/08","00:11:54",16903.000,"cc",28280.494,6.00,6,0.100,15048.000,0.200,663.000,0.300,448.000,0.500,545.000,1.000,199.000,5.000,0
"04/02/08","00:12:00",16721.000,"cc",28336.645,6.00,6,0.100,14947.000,0.200,624.000,0.300,406.000,0.500,528.000,1.000,216.000,5.000,0
"04/02/08","00:12:06",16821.000,"cc",28295.758,6.00,6,0.100,15077.000,0.200,600.000,0.300,464.000,0.500,482.000,1.000,198.000,5.000,0
"04/02/08","00:12:12",16778.000,"cc",28303.668,6.00,6,0.100,14988.000,0.200,617.000,0.300,407.000,0.500,562.000,1.000,204.000,5.000,0
"04/02/08","00:12:18",16911.000,"cc",28319.244,6.00,6,0.100,15043.000,0.200,634.000,0.300,441.000,0.500,556.000,1.000,237.000,5.000,0
"04/02/08","00:12:24",17100.000,"cc",28301.016,6.00,6,0.100,15292.000,0.200,659.000,0.300,403.000,0.500,557.000,1.000,189.000,5.000,0
"04/02/08","00:12:30",16988.000,"cc",28358.422,6.00,6,0.100,15176.000,0.200,641.000,0.300,428.000,0.500,538.000,1.000,205.000,5.000,0
"04/02/08","00:12:36",16982.000,"cc",28291.688,6.00,6,0.100,15120.000,0.200,640.000,0.300,471.000,0.500,533.000,1.000,218.000,5.000,0
"04/02/08","00:12:42",16777.000,"cc",28313.436,6.00,6,0.100,14887.000,0.200,658.000,0.300,458.000,0.500,566.000,1.000,208.000,5.000,0
"04/02/08","00:12:48",16434.000,"cc",28344.811,6.00,6,0.100,14701.000,0.200,625.000,0.300,407.000,0.500,535.000,1.000,166.000,5.000,0
"04/02/08","00:12:54",16432.000,"cc",28282.068,6.00,6,0.100,14621.000,0.200,639.000,0.300,405.000,0.500,571.000,1.000,196.000,5.000,0
"04/02/08","00:13:00",16657.000,"cc",28290.455,6.00,6,0.100,14820.000,0.200,631.000,0.300,462.000,0.500,533.000,1.000,211.000,5.000,0
"04/02/08","00:13:06",16626.000,"cc",28261.527,6.00,6,0.100,14781.000,0.200,711.000,0.300,430.000,0.500,525.000,1.000,179.000,5.000,0
"04/02/08","00:13:12",16568.000,"cc",28385.869,6.00,6,0.100,14792.000,0.200,627.000,0.300,439.000,0.500,519.000,1.000,191.000,5.000,0
"04/02/08","00:13:18",16368.000,"cc",28353.875,6.00,6,0.100,14573.000,0.200,594.000,0.300,430.000,0.500,571.000,1.000,200.000,5.000,0
"04/02/08","00:13:24",16430.000,"cc",28299.150,6.00,6,0.100,14691.000,0.200,650.000,0.300,408.000,0.500,477.000,1.000,204.000,5.000,0
"04/02/08","00:13:30",16209.000,"cc",28252.578,6.00,6,0.100,14507.000,0.200,604.000,0.300,412.000,0.500,520.000,1.000,166.000,5.000,0
"04/02/08","00:13:36",16565.000,"cc",28350.486,6.00,6,0.100,14811.000,0.200,640.000,0.300,413.000,0.500,518.000,1.000,183.000,5.000,0
"04/02/08","00:13:42",16429.000,"cc",28345.215,6.00,6,0.100,14575.000,0.200,658.000,0.300,466.000,0.500,534.000,1.000,196.000,5.000,0
"04/02/08","00:13:48",16648.000,"cc",28270.195,6.00,6,0.100,14778.000,0.200,638.000,0.300,462.000,0.500,574.000,1.000,196.000,5.000,0
"04/02/08","00:13:54",16464.000,"cc",28271.973,6.00,6,0.100,14704.000,0.200,635.000,0.300,430.000,0.500,508.000,1.000,187.000,5.000,0
"04/02/08","00:14:00",16349.000,"cc",28320.059,6.00,6,0.100,14540.000,0.200,612.000,0.300,450.000,0.500,557.000,1.000,190.000,5.000,0
"04/02/08","00:14:06",16266.000,"cc",28339.750,6.00,6,0.100,14533.000,0.200,608.000,0.300,400.000,0.500,517.000,1.000,208.000,5.000,0
"04/02/08","00:14:12",16356.000,"cc",28379.316,6.00,6,0.100,14544.000,0.200,634.000,0.300,449.000,0.500,520.000,1.000,209.000,5.000,0
"04/02/08","00:14:18",16440.000,"cc",28312.107,6.00,6,0.100,14601.000,0.200,693.000,0.300,419.000,0.500,524.000,1.000,203.000,5.000,0
"04/02/08","00:14:24",16183.000,"cc",28314.658,6.00,6,0.100,14323.000,0.200,657.000,0.300,444.000,0.500,551.000,1.000,208.000,5.000,0
"04/02/08","00:14:30",16139.000,"cc",28368.885,6.00,6,0.100,14362.000,0.200,639.000,0.300,413.000,0.500,540.000,1.000,185.000,5.000,0
"04/02/08","00:14:36",16041.000,"cc",28258.711,6.00,6,0.100,14228.000,0.200,652.000,0.300,426.000,0.500,539.000,1.000,196.000,5.000,0
"04/02/08","00:14:42",16305.000,"cc",28339.264,6.00,6,0.100,14427.000,0.200,663.000,0.300,453.000,0.500,536.000,1.000,226.000,5.000,0
"04/02/08","00:14:48",16071.000,"cc",28308.359,6.00,6,0.100,14188.000,0.200,678.000,0.300,460.000,0.500,557.000,1.000,188.000,5.000,0
"04/02/08","00:14:54",15962.000,"cc",28339.859,6.00,6,0.100,14172.000,0.200,615.000,0.300,452.000,0.500,551.000,1.000,172.000,5.000,0
"04/02/08","00:15:00",15820.000,"cc",28279.391,6.00,6,0.100,14011.000,0.200,644.000,0.300,422.000,0.500,532.000,1.000,211.000,5.000,0
"04/02/08","00:15:06",15908.000,"cc",28280.621,6.00,6,0.100,14058.000,0.200,677.000,0.300,444.000,0.500,530.000,1.000,199.000,5.000,0
"04/02/08","00:15:12",15595.000,"cc",28329.961,6.00,6,0.100,13739.000,0.200,646.000,0.300,444.000,0.500,559.000,1.000,207.000,5.000,0
"04/02/08","00:15:18",16019.000,"cc",28288.973,6.00,6,0.100,14150.000,0.200,691.000,0.300,434.000,0.500,532.000,1.000,212.000,5.000,0
"04/02/08","00:15:24",16237.000,"cc",28382.279,6.00,6,0.100,14346.000,0.200,677.000,0.300,464.000,0.500,549.000,1.000,201.000,5.000,0
"04/02/08","00:15:30",16040.000,"cc",28335.766,6.00,6,0.100,14133.000,0.200,636.000,0.300,488.000,0.500,572.000,1.000,211.000,5.000,0
"04/02/08","00:15:36",15991.000,"cc",28270.719,6.00,6,0.100,14017.000,0.200,679.000,0.300,494.000,0.500,598.000,1.000,203.000,5.000,0
"04/02/08","00:15:42",15501.000,"cc",28282.789,6.00,6,0.100,13750.000,0.200,630.000,0.300,441.000,0.500,489.000,1.000,191.000,5.000,0
"04/02/08","00:15:48",15681.000,"cc",28301.678,6.00,6,0.100,13911.000,0.200,632.000,0.300,413.000,0.500,514.000,1.000,211.000,5.000,0
"04/02/08","00:15:54",15647.000,"cc",28295.465,6.00,6,0.100,13833.000,0.200,642.000,0.300,434.000,0.500,576.000,1.000,162.000,5.000,0
"04/02/08","00:16:00",15628.000,"cc",28341.531,6.00,6,0.100,13837.000,0.200,631.000,0.300,432.000,0.500,532.000,1.000,196.000,5.000,0
"04/02/08","00:16:06",15503.000,"cc",28333.707,6.00,6,0.100,13753.000,0.200,624.000,0.300,430.000,0.500,489.000,1.000,207.000,5.000,0
"04/02/08","00:16:12",15670.000,"cc",28262.119,6.00,6,0.100,13932.000,0.200,619.000,0.300,377.000,0.500,547.000,1.000,195.000,5.000,0
"04/02/08","00:16:18",15739.000,"cc",28238.457,6.00,6,0.100,13985.000,0.200,651.000,0.300,418.000,0.500,492.000,1.000,193.000,5.000,0
"04/02/08","00:16:24",15819.000,"cc",28372.957,6.00,6,0.100,13978.000,0.200,673.000,0.300,409.000,0.500,557.000,1.000,202.000,5.000,0
"04/02/08","00:16:30",16238.000,"cc",28352.416,6.00,6,0.100,14337.000,0.200,663.000,0.300,460.000,0.500,548.000,1.000,230.000,5.000,0
"04/02/08","00:16:36",15806.000,"cc",28348.623,6.00,6,0.100,13944.000,0.200,665.000,0.300,439.000,0.500,540.000,1.000,218.000,5.000,0
"04/02/08","00:16:42",15904.000,"cc",28340.680,6.00,6,0.100,14085.000,0.200,650.000,0.300,439.000,0.500,521.000,1.000,209.000,5.000,0